| time (UTC) | temp F | wind direction | speed MPH | gust MPH | rain 1hr in | rain 24hr in | rain mn in | humidity % | barometer mb |
| 20260504201513 | 47 | 257 | 7.0 | 11.0 | 0.00 | 0.07 | 0.00 | 73 | 1003.2 |
| 20260504200011 | 47 | 284 | 5.0 | 11.0 | 0.00 | 0.07 | 0.00 | 74 | 1003.1 |
| 20260504194553 | 46 | 325 | 6.0 | 9.0 | 0.00 | 0.07 | 0.00 | 73 | 1003.3 |
| 20260504193051 | 46 | 327 | 6.0 | 12.0 | 0.00 | 0.11 | 0.00 | 72 | 1003.3 |
| 20260504191539 | 46 | 343 | 8.0 | 14.0 | 0.00 | 0.11 | 0.00 | 71 | 1003.3 |
| 20260504190032 | 47 | 289 | 9.0 | 15.0 | 0.00 | 0.11 | 0.00 | 68 | 1003.3 |
| 20260504184515 | 47 | 304 | 7.0 | 15.0 | 0.00 | 0.11 | 0.00 | 65 | 1003.4 |
| 20260504183013 | 48 | 302 | 6.0 | 18.0 | 0.00 | 0.13 | 0.00 | 64 | 1003.3 |
| 20260504181557 | 50 | 238 | 7.0 | 14.0 | 0.00 | 0.13 | 0.00 | 55 | 1003.0 |
| 20260504180059 | 50 | 257 | 11.0 | 21.0 | 0.00 | 0.13 | 0.00 | 54 | 1002.9 |
| 20260504174535 | 51 | 345 | 9.0 | 21.0 | 0.00 | 0.13 | 0.00 | 50 | 1002.8 |
| 20260504173037 | 52 | 229 | 11.0 | 16.0 | 0.00 | 0.15 | 0.00 | 47 | 1002.5 |
| 20260504171517 | 53 | 313 | 11.0 | 18.0 | 0.00 | 0.15 | 0.00 | 43 | 1002.3 |
| 20260504081539 | 32 | 320 | 2.0 | 6.0 | 0.00 | 0.40 | 0.24 | 86 | 1002.8 |
| 20260504050015 | 36 | 348 | 8.0 | 13.0 | 0.00 | 0.42 | 0.24 | 83 | 1002.2 |
| 20260504044512 | 37 | 335 | 9.0 | 14.0 | 0.00 | 0.42 | 0.24 | 84 | 1002.2 |
| 20260504043058 | 37 | 333 | 8.0 | 15.0 | 0.00 | 0.42 | 0.24 | 85 | 1002.2 |
| 20260504041559 | 38 | 335 | 7.0 | 17.0 | 0.00 | 0.42 | 0.24 | 85 | 1002.2 |
| 20260504040053 | 38 | 348 | 5.0 | 13.0 | 0.00 | 0.42 | 0.24 | 87 | 1002.2 |
| 20260504034549 | 39 | 338 | 7.0 | 15.0 | 0.00 | 0.42 | 0.24 | 91 | 1002.0 |
| 20260504033047 | 39 | 342 | 7.0 | 12.0 | 0.00 | 0.42 | 0.24 | 92 | 1001.9 |
| 20260504031547 | 39 | 338 | 3.0 | 9.0 | 0.00 | 0.42 | 0.24 | 93 | 1001.9 |
| 20260504030042 | 39 | 335 | 5.0 | 10.0 | 0.00 | 0.42 | 0.24 | 93 | 1002.0 |
| 20260504024554 | 39 | 325 | 0.0 | 8.0 | 0.00 | 0.42 | 0.24 | 93 | 1002.0 |
| 20260504023029 | 39 | 360 | 1.0 | 3.0 | 0.00 | 0.42 | 0.24 | 93 | 1001.9 |
| 20260504021528 | 39 | 360 | 2.0 | 6.0 | 0.01 | 0.42 | 0.24 | 93 | 1001.8 |
| 20260504020028 | 39 | 355 | 1.0 | 7.0 | 0.01 | 0.42 | 0.24 | 93 | 1001.9 |
| 20260504014527 | 39 | 13 | 3.0 | 9.0 | 0.02 | 0.42 | 0.24 | 93 | 1001.9 |
| 20260504013034 | 40 | 336 | 3.0 | 12.0 | 0.02 | 0.42 | 0.24 | 94 | 1002.0 |
| 20260504011528 | 40 | 14 | 2.0 | 12.0 | 0.01 | 0.41 | 0.23 | 93 | 1002.1 |
| 20260504010023 | 40 | 14 | 3.0 | 14.0 | 0.02 | 0.41 | 0.23 | 94 | 1001.9 |
| 20260504004526 | 40 | 34 | 3.0 | 10.0 | 0.01 | 0.40 | 0.22 | 94 | 1001.9 |
| 20260504003004 | 40 | 319 | 2.0 | 8.0 | 0.01 | 0.40 | 0.22 | 93 | 1001.8 |
| 20260504001503 | 40 | 355 | 2.0 | 7.0 | 0.00 | 0.39 | 0.21 | 93 | 1001.7 |
| 20260504000112 | 40 | 333 | 2.0 | 9.0 | 0.01 | 0.39 | 0.21 | 93 | 1001.6 |
| 20260503234552 | 40 | 15 | 2.0 | 10.0 | 0.01 | 0.39 | 0.21 | 94 | 1001.6 |
| 20260503233031 | 40 | 340 | 2.0 | 10.0 | 0.01 | 0.40 | 0.21 | 94 | 1001.6 |
| 20260503231530 | 40 | 336 | 1.0 | 7.0 | 0.02 | 0.40 | 0.21 | 93 | 1001.6 |
| 20260503230028 | 40 | 348 | 1.0 | 6.0 | 0.01 | 0.39 | 0.20 | 93 | 1001.6 |
| 20260503224529 | 40 | 53 | 2.0 | 9.0 | 0.01 | 0.39 | 0.20 | 93 | 1001.8 |
| 20260503223036 | 40 | 16 | 1.0 | 4.0 | 0.01 | 0.39 | 0.20 | 93 | 1001.7 |
| 20260503221525 | 40 | 16 | 2.0 | 7.0 | 0.01 | 0.38 | 0.19 | 93 | 1001.7 |
| 20260503220024 | 40 | 22 | 1.0 | 6.0 | 0.01 | 0.38 | 0.19 | 93 | 1001.7 |
| 20260503214524 | 40 | 33 | 2.0 | 7.0 | 0.01 | 0.38 | 0.19 | 93 | 1001.9 |
| 20260503213021 | 40 | 27 | 1.0 | 5.0 | 0.01 | 0.38 | 0.19 | 93 | 1002.1 |
| 20260503211519 | 40 | 360 | 1.0 | 10.0 | 0.01 | 0.37 | 0.18 | 93 | 1002.3 |
| 20260503210002 | 41 | 360 | 1.0 | 8.0 | 0.01 | 0.37 | 0.18 | 93 | 1002.4 |
| 20260503204600 | 41 | 318 | 1.0 | 5.0 | 0.01 | 0.37 | 0.18 | 92 | 1002.4 |
| 20260503203057 | 40 | 360 | 0.0 | 4.0 | 0.01 | 0.37 | 0.18 | 92 | 1002.5 |